Holland, MI

3:32 AM EST on November 22, 2017 (GMT -0500)
Tulip City

Weather History for KBIV - November, 2013

Change the Weather History Date:

Saturday, November 16, 2013

  Actual Average Record
Temperature  
Mean Temperature 46 °F 42 °F  
Max Temperature 58 °F 48 °F 68 °F (1990)
Min Temperature 34 °F 35 °F 18 °F (1972)
Degree Days  
Heating Degree Days 19 23  
Month to date heating degree days 312 328  
Since 1 July heating degree days 806 853  
Cooling Degree Days 0 0  
Month to date cooling degree days 2 0  
Year to date cooling degree days 813 693  
Moisture  
Dew Point 45 °F    
Average Humidity 83    
Maximum Humidity 93    
Minimum Humidity 72    
Precipitation  
Precipitation 0.42 in 0.12 in 0.59 in (1996)
Month to date precipitation 2.56 2.12  
Year to date precipitation 36.92 32.82  
Sea Level Pressure  
Sea Level Pressure 29.81 in    
Wind  
Wind Speed 14 mph (SSE)    
Max Wind Speed 24 mph    
Max Gust Speed 32 mph    
Visibility 9 miles    
Events Rain    
T = Trace of Precipitation, MM = Missing Value Source: NWS Daily Summary

Daily Weather History Graph

Daily Weather History Graph

Search for Another Location

Airport or City:

Trip Planner

Search our weather history database for the weather conditions in past years. The results will help you decide how hot, cold, wet, or windy it might be!

Date:

Astronomy

Nov. 16, 2013 Rise Set
Actual Time 7:37 AM EST 5:20 PM EST
Civil Twilight 7:07 AM EST 5:50 PM EST
Nautical Twilight 6:32 AM EST 6:25 PM EST
Astronomical Twilight 5:59 AM EST 6:58 PM EST
Moon 4:56 PM EST (11/16) 6:32 AM EST (11/16)
Length of Visible Light 10h 43m
Length of Day
9h 42m
Waxing Gibbous, 99% of the Moon is Illuminated
Nov 16
Waxing Gibbous
Nov 17
Full
Nov 25
Last Quarter
Dec 2
New
Dec 9
First Quarter

Hourly Weather History & Observations

Time (EST) Temp. Windchill Dew Point Humidity Pressure Visibility Wind Dir Wind Speed Gust Speed Precip Events Conditions
12:53 AM 37.0 °F 31.6 °F 30.9 °F 79% 30.00 in 10.0 mi SSE 6.9 mph - N/A   Clear
1:53 AM 36.0 °F 30.3 °F 30.0 °F 79% 29.99 in 10.0 mi SSE 6.9 mph - N/A   Clear
2:53 AM 35.1 °F 29.3 °F 30.0 °F 82% 30.00 in 10.0 mi SSE 6.9 mph - N/A   Clear
3:53 AM 35.1 °F 30.1 °F 30.0 °F 82% 30.01 in 10.0 mi SSE 5.8 mph - N/A   Clear
4:53 AM 35.1 °F 30.1 °F 30.9 °F 85% 30.02 in 10.0 mi SSE 5.8 mph - N/A   Partly Cloudy
5:08 AM 36.0 °F 30.3 °F 32.0 °F 86% 30.00 in 10.0 mi SSE 6.9 mph - N/A   Mostly Cloudy
5:53 AM 39.9 °F 35.1 °F 35.1 °F 83% 30.01 in 10.0 mi SSE 6.9 mph - N/A   Overcast
6:53 AM 42.1 °F 36.6 °F 37.0 °F 82% 30.00 in 10.0 mi SE 9.2 mph - N/A   Overcast
7:53 AM 44.1 °F 38.6 °F 39.0 °F 82% 29.98 in 10.0 mi SE 10.4 mph - N/A   Overcast
8:53 AM 45.0 °F 38.2 °F 39.9 °F 82% 29.96 in 9.0 mi SSE 15.0 mph - N/A   Overcast
9:53 AM 46.9 °F - 42.1 °F 83% 29.94 in 8.0 mi SSE 13.8 mph - N/A   Overcast
10:53 AM 50.0 °F - 45.0 °F 83% 29.93 in 10.0 mi SSE 15.0 mph - N/A   Overcast
11:53 AM 54.0 °F - 46.0 °F 75% 29.90 in 10.0 mi South 15.0 mph 21.9 mph N/A   Overcast
12:53 PM 55.0 °F - 46.9 °F 74% 29.87 in 10.0 mi South 17.3 mph 24.2 mph N/A   Overcast
1:00 PM 55.0 °F - 46.9 °F 74% 29.85 in 10.0 mi SSE 12.7 mph 24.2 mph N/A   Overcast
1:53 PM 54.0 °F - 46.9 °F 77% 29.84 in 10.0 mi South 18.4 mph 27.6 mph N/A   Overcast
2:53 PM 55.0 °F - 48.0 °F 77% 29.81 in 10.0 mi South 15.0 mph 25.3 mph N/A   Overcast
3:53 PM 55.9 °F - 48.9 °F 77% 29.80 in 10.0 mi South 16.1 mph 26.5 mph N/A   Overcast
4:53 PM 55.9 °F - 48.9 °F 77% 29.79 in 10.0 mi SSE 13.8 mph - N/A   Overcast
5:36 PM 55.9 °F - 48.9 °F 77% 29.75 in 10.0 mi SSE 13.8 mph 20.7 mph N/A   Overcast
5:53 PM 55.9 °F - 48.9 °F 77% 29.76 in 10.0 mi SSE 18.4 mph - N/A   Overcast
6:53 PM 55.9 °F - 48.9 °F 77% 29.75 in 10.0 mi SSE 15.0 mph 27.6 mph N/A   Overcast
7:53 PM 54.0 °F - 50.0 °F 86% 29.70 in 10.0 mi SE 20.7 mph - 0.02 in Rain Light Rain
8:53 PM 54.0 °F - 50.0 °F 86% 29.66 in 7.0 mi SSE 24.2 mph 31.1 mph 0.03 in Rain Rain
9:11 PM 54.0 °F - 50.0 °F 86% 29.65 in 10.0 mi SSE 23.0 mph 31.1 mph 0.00 in Rain Light Rain
9:51 PM 53.6 °F - 51.8 °F 94% 29.67 in 6.0 mi SSE 21.9 mph 27.6 mph 0.09 in Rain Rain
9:53 PM 54.0 °F - 51.1 °F 90% 29.61 in 6.0 mi SSE 16.1 mph 27.6 mph 0.09 in Rain Light Rain
10:08 PM 54.0 °F - 51.1 °F 90% 29.67 in 7.0 mi SSE 17.3 mph 26.5 mph 0.01 in Rain Light Rain
10:48 PM 55.4 °F - 53.6 °F 94% 29.67 in 3.0 mi South 17.3 mph - 0.14 in Rain Heavy Rain
10:53 PM 55.9 °F - 54.0 °F 93% 29.62 in 3.0 mi South 18.4 mph 26.5 mph 0.16 in Rain Rain
11:00 PM 55.9 °F - 54.0 °F 93% 29.66 in 3.0 mi South 17.3 mph - 0.04 in Rain Rain
11:12 PM 57.0 °F - 55.0 °F 93% 29.65 in 5.0 mi South 19.6 mph 28.8 mph 0.07 in Rain Light Rain
11:20 PM 57.0 °F - 55.0 °F 93% 29.65 in 7.0 mi South 18.4 mph 26.5 mph 0.08 in Rain Light Rain
11:48 PM 57.2 °F - 55.4 °F 94% 29.65 in 10.0 mi South 19.6 mph 25.3 mph 0.09 in Rain Light Rain
11:53 PM 57.9 °F - 55.9 °F 93% 29.65 in 9.0 mi South 19.6 mph - 0.10 in Rain Light Rain